• MPC Preparation (Info)

  • MPEC 2016-O55 : 2014 QX441

    The following Minor Planet Electronic Circular may be linked-to from your own Web pages, but must not otherwise be redistributed electronically.

    A form allowing access to any MPEC is at the bottom of this page.


    Read MPEC 2016-O54 Read MPEC 2016-O56


    M.P.E.C. 2016-O55                                Issued 2016 July 16, 21:47 UT
    
         The Minor Planet Electronic Circulars contain information on unusual
             minor planets and routine data on comets.  They are published
        on behalf of Division F of the International Astronomical Union by the
              Minor Planet Center, Smithsonian Astrophysical Observatory,
                              Cambridge, MA 02138, U.S.A.
    
                 Prepared using the Tamkin Foundation Computer Network
    
                                  MPC@CFA.HARVARD.EDU
                URL https://www.minorplanetcenter.net/    ISSN 1523-6714
    
                                      2014 QX441
    
    Observations:
         K14Qi1X  C2011 10 05.43265 00 37 49.709-15 58 44.33         21.0 iLEO055F51
         K14Qi1X  C2011 10 05.44409 00 37 49.632-15 58 44.47         20.8 iLEO055F51
         K14Qi1X  C2011 10 05.45692 00 37 49.557-15 58 44.78         20.8 rLEO055F51
         K14Qi1X  C2011 10 05.46756 00 37 49.500-15 58 45.03         20.8 rLEO055F51
         K14Qi1X  C2012 10 10.36350 00 42 20.485-14 51 39.52         21.1 wLEO055F51
         K14Qi1X  C2012 10 10.37742 00 42 20.410-14 51 39.78         21.2 wLEO055F51
         K14Qi1X  C2012 10 10.39135 00 42 20.333-14 51 40.05         21.1 wLEO055F51
         K14Qi1X  C2012 10 10.40526 00 42 20.256-14 51 40.44         21.2 wLEO055F51
         K14Qi1X  C2013 11 23.22737 00 43 58.553-13 46 34.52         21.1 rLEO055F51
         K14Qi1X  C2013 11 23.23876 00 43 58.507-13 46 34.18         21.0 rLEO055F51
         K14Qi1X  C2013 11 23.25155 00 43 58.474-13 46 34.21         20.8 iLEO055F51
         K14Qi1X  C2013 11 23.26429 00 43 58.427-13 46 33.98         20.8 iLEO055F51
         K14Qi1X* C2014 08 22.52530 00 56 08.163-12 06 38.81         21.1 wLEO055F51
         K14Qi1X  C2014 08 22.53647 00 56 08.125-12 06 39.14         21.2 wLEO055F51
         K14Qi1X  C2014 08 22.54765 00 56 08.083-12 06 39.57         21.1 wLEO055F51
         K14Qi1X  C2014 08 22.55887 00 56 08.047-12 06 39.92         21.2 wLEO055F51
         K14Qi1X  C2014 09 14.44816 00 54 30.995-12 19 53.88         20.9 iLEO055F51
         K14Qi1X  C2014 09 14.45984 00 54 30.938-12 19 54.17         20.8 iLEO055F51
         K14Qi1X  C2014 09 14.47145 00 54 30.880-12 19 54.51         20.7 iLEO055F51
         K14Qi1X  C2014 09 14.48309 00 54 30.825-12 19 55.17         20.8 iLEO055F51
         K14Qi1X  C2014 09 22.47287 00 53 50.623-12 24 12.29         21.1 wLEO055F51
         K14Qi1X  C2014 09 22.48566 00 53 50.558-12 24 12.59         21.1 wLEO055F51
         K14Qi1X  C2014 09 22.49850 00 53 50.486-12 24 13.06         21.2 wLEO055F51
         K14Qi1X  C2014 09 22.51133 00 53 50.419-12 24 13.49         21.2 wLEO055F51
         K14Qi1X  C2014 09 24.44138 00 53 40.406-12 25 12.64         21.2 wLEO055F51
         K14Qi1X  C2014 09 24.45418 00 53 40.340-12 25 13.07         21.3 wLEO055F51
         K14Qi1X  C2014 09 24.46700 00 53 40.248-12 25 13.44         21.4 wLEO055F51
         K14Qi1X  C2014 09 24.47986 00 53 40.195-12 25 13.81         21.4 wLEO055F51
         K14Qi1X  C2014 12 07.21556 00 48 13.194-12 34 23.34         21.1 iLEO055F51
         K14Qi1X  C2014 12 07.22858 00 48 13.158-12 34 22.92         21.0 iLEO055F51
         K14Qi1X  C2014 12 07.24159 00 48 13.122-12 34 22.81         21.0 iLEO055F51
         K14Qi1X  C2014 12 07.25465 00 48 13.102-12 34 22.50         20.8 iLEO055F51
    
    Observer details:
    F51 Pan-STARRS 1, Haleakala.  Observers B. Gibson, T. Goggia, N. Primak,
        A. Schultz, M. Willman.  Measurers K. Chambers, S. Chastel, Y.-T. Chen,
        L. Denneau, H. Flewelling, M. Holman, M. Huber, R. Jedicke, M. Lackner,
        E. Lilly, H.-W. Lin, E. Magnier, M. Micheli, M. Payne, P. Veres,
        R. Wainscoat, C. Waters, R. Weryk.  1.8-m Ritchey-Chretien + CCD.
    
    Orbital elements:
    2014 QX441
    Epoch 2016 July 31.0 TT = JDT 2457600.5                 MPC
    M  26.23658              (2000.0)            P               Q
    n   0.00415405     Peri.  295.19431     +0.87026802     +0.38756909
    a  38.3255566      Node    43.84939     -0.10945841     +0.75391532
    e   0.0361392      Incl.   26.02987     -0.48026287     +0.53047327
    P 237              H    5.4           G   0.15           U   3
    Residuals in seconds of arc
    111005 F51  0.2+  0.1-    131123 F51  0.0   0.0     140922 F51  0.1-  0.0
    111005 F51  0.0   0.0     140822 F51  0.1+  0.1+    140922 F51  0.1-  0.0
    111005 F51  0.0   0.0     140822 F51  0.1+  0.1+    140924 F51  0.0   0.0
    111005 F51  0.0   0.0     140822 F51  0.1+  0.1+    140924 F51  0.1+  0.0
    121010 F51  0.1-  0.0     140822 F51  0.1+  0.1+    140924 F51  0.3-  0.0
    121010 F51  0.1-  0.1+    140914 F51  0.0   0.1-    140924 F51  0.1-  0.0
    121010 F51  0.1-  0.1+    140914 F51  0.0   0.0     141207 F51  0.2+  0.1-
    121010 F51  0.1-  0.0     140914 F51  0.0   0.0     141207 F51  0.1+  0.1+
    131123 F51  0.1+  0.1-    140914 F51  0.1+  0.3-    141207 F51  0.1-  0.1-
    131123 F51  0.1-  0.1+    140922 F51  0.1-  0.0     141207 F51  0.1+  0.0
    131123 F51  0.1+  0.0     140922 F51  0.0   0.1+
    
    Ephemeris:
    2014 QX441               a,e,i = 38.33, 0.04, 26                 q = 36.941
    Date    TT    R. A. (2000) Decl.     Delta      r     Elong.  Phase     V
    2016 06 16    01 05 52.1 -09 25 12  37.3550 37.0913    74.2     1.5    21.3
    ...
    2016 07 01    01 06 27.5 -09 26 25  37.1158 37.0920    87.9     1.6    21.3
    ...
    2016 07 09    01 06 37.5 -09 28 05  36.9863 37.0924    95.2     1.6    21.3
    ...
    2016 07 15    01 06 40.9 -09 29 45  36.8902 37.0927   100.7     1.5    21.3
    2016 07 16    01 06 41.1 -09 30 04  36.8743 37.0928   101.6     1.5    21.3
    2016 07 17    01 06 41.3 -09 30 23  36.8586 37.0928   102.6     1.5    21.3
    ...
    2016 07 23    01 06 39.9 -09 32 30  36.7652 37.0931   108.1     1.5    21.3
    ...
    2016 07 31    01 06 32.6 -09 35 46  36.6459 37.0935   115.5     1.4    21.3
    ...
    2016 08 15    01 06 02.5 -09 43 02  36.4453 37.0942   129.2     1.2    21.2
    
    A. U. Tomatic                (C) Copyright 2016 MPC           M.P.E.C. 2016-O55
    

    Read MPEC 2016-O54 Read MPEC 2016-O56


    MPEC number:

    Enter an MPEC number in one of the following forms:

    • 1997-B01 (the full form)
    • J97B01 (the packed version of the full form)
    • B01 (the abbreviated form)